Location: Revello
(44.6500°N, 7.3833°E)
Time: 12:10:30
(UTC+00:00)

Daily predictions for brighter satellites

Satellite Brightness Start Highest point End
(mag) Time Altitude Azimuth Time Altitude Azimuth Time Altitude Azimuth
Meteor 1-11 Rocket 3.7 17:48:00 10° S 17:53:23 60° E 17:58:52 10° NNE
Cosmos 1844 Rocket 3.3 17:48:38 10° NNW 17:53:46 36° NE 17:58:51 10° ESE
Cosmos 2278 3.8 17:48:15 10° SSW 17:53:55 85° ESE 17:59:38 10° NNE
Lacrosse 5 2.4 17:51:02 10° WSW 17:56:05 65° NW 18:01:11 10° NE
Cosmos 2219 Rocket 3.8 17:55:36 10° ESE 17:57:55 13° E 18:00:13 10° ENE
Cosmos 2237 4.3 17:52:59 10° S 17:58:32 56° ESE 18:04:08 10° NNE
Nadezhda 1 Rocket 4.1 17:52:53 10° S 17:59:11 73° E 18:05:35 10° NNE
Cosmos 1371 Rocket 4.0 17:58:52 10° NNW 18:04:04 89° E 18:09:16 10° SSE
CZ-4C R/B 4.4 18:02:09 10° NE 18:04:34 18° E 18:06:57 10° SE
In-Cosmos 22 4.5 18:00:04 10° N 18:05:19 44° ENE 18:10:24 10° SE
Meteor 2-20 4.4 18:00:49 10° S 18:06:54 79° E 18:13:04 10° N
CZ-4B R/B 3.7 18:03:10 10° SE 18:07:59 37° ENE 18:12:49 10° N
Cosmos 2112 Rocket 4.4 18:04:11 10° SSW 18:09:24 73° WNW 18:14:43 10° NNE
Cosmos 2227 4.3 18:03:44 10° NNW 18:09:32 88° WSW 18:15:17 10° SSE
Cosmos 724 4.5 18:03:48 10° NNW 18:09:52 60° NE 18:15:44 10° SE
Landsat 7 4.4 18:05:55 10° SE 18:10:10 35° ENE 18:14:27 10° N
Cosmos 1420 Rocket 4.2 18:05:56 10° NNW 18:11:07 79° WSW 18:16:19 10° SSE
SWAS 4.3 18:07:58 10° SSW 18:12:08 75° ESE 18:16:23 10° NNE
Cosmos 1452 Rocket 4.3 18:07:42 10° N 18:12:31 34° ENE 18:17:17 10° SE
Timation 2 Rocket 3.9 18:06:37 10° NNW 18:12:36 68° ENE 18:18:34 10° SE
Meteor 2-9 Rocket 4.3 18:09:29 10° S 18:14:53 56° E 18:20:27 10° NNE
Cosmos 2322 Rocket 2.3 18:10:15 10° S 18:15:40 54° ESE 18:21:08 10° NE
Cosmos 1536 3.3 18:12:59 10° SSW 18:16:57 66° W 18:20:56 10° N
Cosmos 2154 Rocket 4.4 18:10:46 10° NNW 18:17:04 72° W 18:23:22 10° S
SL-8 R/B 4.1 18:12:48 10° W 18:17:31 60° N 18:22:15 10° ENE
Cosmos 1726 3.0 18:15:09 10° SE 18:17:55 24° E 18:20:42 10° NE
Cosmos 1340 Rocket 4.3 18:15:58 10° NNE 18:18:58 20° ENE 18:21:12 13° ESE
PSLV R/B 4.2 18:17:51 10° SE 18:21:22 39° ENE 18:24:59 10° N
Cosmos 1048 Rocket 4.4 18:17:06 10° S 18:22:07 43° ESE 18:27:11 10° NNE
Cosmos 2228 Rocket 3.2 18:18:24 10° N 18:22:53 84° W 18:27:23 10° S
CZ-4C R/B 4.0 18:18:45 10° W 18:22:58 28° NNW 18:28:04 10° NNE
Sich 1 4.1 18:19:05 10° SSW 18:23:10 48° WNW 18:27:17 10° N
Cosmos 2218 Rocket 4.3 18:18:13 10° N 18:24:03 42° ENE 18:29:50 10° SE
CZ-4 R/B 1.6 18:20:28 10° SE 18:24:14 46° ENE 18:27:57 10° N
Cosmos 1607 4.2 18:18:05 10° NW 18:24:34 79° WSW 18:31:02 10° SSE
USA 215 3.3 18:18:11 10° NE 18:24:38 58° SE 18:31:02 10° SSW
Cosmos 494 Rocket 4.1 18:19:36 10° S 18:24:42 54° ESE 18:29:48 10° NNE
Cosmos 1271 Rocket 3.6 18:21:36 10° SSW 18:25:24 53° WNW 18:29:15 10° N
DMSP B5D1-3 4.4 18:22:43 10° NNE 18:27:49 72° ESE 18:32:53 10° S
SJ-6B 3.3 18:24:35 10° SE 18:28:21 41° ENE 18:32:10 10° N
Cosmos 1844 3.9 18:24:28 10° NNW 18:30:13 59° ENE 18:35:55 10° SE
CSL-04 Rocket 4.4 18:27:05 12° ESE 18:31:18 31° ENE 18:35:54 10° N
Cosmos 2084 3.6 18:28:08 10° NNW 18:31:46 45° NE 18:34:16 18° ESE
Iridium 2 3.3 18:31:00 10° N 18:34:26 69° E 18:37:50 10° S
Cosmos 2333 Rocket 2.5 18:30:46 10° S 18:36:02 42° ESE 18:41:20 10° NE
Okean 3 3.9 18:33:10 10° N 18:37:03 37° ENE 18:40:06 15° SE
Cosmos 1666 Rocket 3.6 18:33:05 10° S 18:37:32 87° W 18:42:02 10° N
Cosmos 1975 3.1 18:37:00 10° SSE 18:40:38 39° E 18:44:17 10° NNE
Cosmos 1933 Rocket 4.4 18:39:36 10° SSE 18:43:25 29° E 18:47:13 10° NNE
Landsat 4 3.5 18:41:38 10° SSE 18:45:12 86° ENE 18:48:50 10° NNW
Okean O Rocket 1.8 18:42:07 12° SE 18:45:59 51° ENE 18:50:18 10° N
Cosmos 1707 Rocket 4.0 18:41:56 10° NNW 18:46:21 64° W 18:50:44 10° S
Cosmos 2360 Rocket 2.1 18:42:17 10° SSW 18:47:53 70° ESE 18:53:30 10° NNE
USA 81 4.1 18:43:47 10° SSE 18:48:55 59° E 18:54:05 10° NNE
Resurs 01 Rocket 2.6 18:50:29 24° E 18:51:44 28° ENE 18:55:32 10° N
Cosmos 2181 Rocket 4.0 18:45:44 10° S 18:52:05 64° E 18:58:24 10° NNE
NOSS 2-3 (E) 4.4 18:49:09 10° S 18:51:21 23° SE 18:51:21 23° SE
ISS -1.9 18:50:08 10° WNW 18:52:59 25° N 18:55:07 14° NE
ADEOS Rocket 3.9 18:52:22 17° SE 18:58:10 46° ENE 19:05:19 10° N
Cosmos 1733 2.9 18:55:10 10° S 18:58:48 71° E 19:02:29 10° NNE
USA 267 3.5 18:54:52 22° E 18:59:10 58° NNE 19:05:34 10° NW
Cosmos 864 Rocket 4.4 18:54:03 10° N 19:00:24 80° E 19:06:39 10° S
Cosmos 1707 3.9 18:58:25 10° NNW 19:02:01 43° W 19:05:36 10° SSW
USA 308 4.3 19:01:08 10° NW 19:03:58 22° NNE 19:05:11 19° NE
Cosmos 468 4.4 18:59:41 10° SSW 19:05:00 79° ESE 19:10:20 10° NNE
Okean-O 3.2 19:06:20 34° E 19:07:07 37° ENE 19:11:11 10° N
Cosmos 2292 4.1 19:05:49 10° S 19:09:16 75° E 19:12:17 10° NNE
Okean 1-7 2.9 19:06:51 10° N 19:11:11 75° E 19:13:28 27° SSE
Cosmos 1110 Rocket 3.9 19:07:34 10° NNW 19:12:46 88° ENE 19:16:02 23° SSE
Terra 4.1 19:19:12 10° NE 19:19:12 10° NE 19:19:26 10° NE
Cosmos 1633 Rocket 4.5 19:14:08 10° SW 19:18:11 38° WNW 19:22:16 10° N
Resurs 1-3 3.8 19:14:39 13° S 19:18:27 68° WSW 19:22:49 10° NNW
Cosmos 2242 Rocket 4.4 19:15:58 10° N 19:19:38 34° ENE 19:19:38 34° ENE
Okean 2 3.6 19:17:27 10° N 19:21:07 47° ENE 19:21:07 47° ENE
Cosmos 1869 Rocket 4.4 19:23:44 33° NE 19:23:44 33° NE 19:26:42 10° NNE
USA 306 4.4 19:19:48 10° NW 19:22:55 23° NNE 19:23:47 21° NNE
USA 186 2.0 19:25:02 57° WSW 19:25:09 58° W 19:28:07 10° NNW
SL-14 R/B 3.2 19:26:14 10° N 19:30:13 85° W 19:30:52 61° S
SL-16 R/B 4.2 19:27:47 10° WSW 19:32:41 29° NW 19:37:37 10° N
SPOT 5 4.3 19:34:41 22° NE 19:34:41 22° NE 19:37:19 10° NNE
Cosmos 1844 Rocket 4.0 19:32:34 10° NW 19:37:38 37° WSW 19:42:31 11° S
Cosmos 1934 Rocket 4.4 19:32:25 10° N 19:38:24 41° ENE 19:38:47 40° E
Cosmos 1821 Rocket 3.9 19:32:28 10° N 19:38:44 85° E 19:42:05 30° S
Cosmos 1805 3.9 19:36:03 11° SSW 19:39:35 52° WNW 19:43:18 10° N
Lacrosse 5 3.9 19:35:44 10° WNW 19:39:54 24° NNW 19:43:56 11° NE
Cosmos 2239 Rocket 4.4 19:34:02 10° N 19:40:10 64° E 19:41:45 48° SE
Cosmos 2219 Rocket 2.0 19:35:22 10° SSW 19:40:57 89° ESE 19:46:35 10° NNE
Cosmos 1302 Rocket 3.9 19:39:28 10° NNW 19:44:46 73° ENE 19:45:20 66° ESE
SPOT 1/Viking Rocket 4.0 19:46:03 27° S 19:48:46 59° W 19:53:53 10° NNW
Nadezhda 3 Rocket 3.9 19:46:55 26° S 19:50:46 79° E 19:57:10 10° N
ATLAS 3B R/B 3.9 19:47:15 10° S 19:57:27 27° ENE 20:00:41 10° NE
Cosmos 1340 Rocket 4.3 19:51:35 10° NNW 19:55:18 35° W 19:56:36 27° SW
Cosmos 1943 Rocket 3.8 19:53:20 10° N 19:57:08 20° NE 19:57:08 20° NE
CZ-4 R/B 4.2 19:57:06 10° SW 19:59:14 14° W 20:01:22 10° WNW
Cosmos 2322 Rocket 4.2 19:55:20 10° WSW 20:00:02 27° NW 20:04:45 10° N
SL-8 R/B 4.0 19:55:42 10° WNW 20:00:18 58° N 20:00:18 58° N
Ariane Rocket 4.1 20:03:31 32° NNE 20:03:31 32° NNE 20:06:46 10° N
Cosmos 2278 Rocket 2.9 19:59:44 10° NNW 20:04:32 41° NE 20:04:32 41° NE
USA 215 3.9 20:01:17 10° NE 20:07:35 53° NNW 20:13:53 10° WSW
MOS 1 4.2 20:16:37 76° SW 20:16:51 78° WSW 20:22:32 10° NNW
Cosmos 2333 Rocket 3.8 20:15:20 10° WSW 20:20:24 33° NW 20:25:30 10° N
Okean O Rocket 4.2 20:19:47 10° SW 20:22:36 16° W 20:25:24 10° NW
COSMOS 2455 3.0 20:18:20 10° NNW 20:23:45 64° NNE 20:23:45 64° NNE
COSMOS 2428 3.2 20:26:37 53° N 20:26:37 53° N 20:30:59 10° NNE
IRS-1C Rocket 4.5 20:25:24 57° W 20:25:24 57° W 20:30:36 10° NNW
Milstar 3 Cent rocket 4.4 20:22:00 10° SW 20:26:14 18° SSW 20:26:14 18° SSW
Resurs 01 Rocket 3.2 20:28:00 30° W 20:28:07 30° W 20:32:03 10° NNW
Cosmos 2322 4.2 20:23:23 10° SW 20:29:00 58° WNW 20:34:41 10° NNE
ISS -0.5 20:27:27 10° NW 20:28:03 14° NW 20:28:03 14° NW
USA 267 3.7 20:42:13 51° SW 20:42:14 51° SW 20:48:36 10° WNW
Cosmos 2369 Rocket 4.5 20:39:45 10° N 20:41:32 13° NNE 20:41:32 13° NNE
ADEOS Rocket 4.5 20:39:19 24° SSW 20:43:33 43° W 20:50:49 10° NNW
Terra 3.8 20:57:56 23° N 20:57:56 23° N 20:59:44 10° NNW
Lacrosse 5 4.2 21:20:30 10° NW 21:23:07 19° NNW 21:23:07 19° NNW
Cosmos 1943 Rocket 4.1 21:36:14 10° NNW 21:38:39 26° NNW 21:38:39 26° NNW
ATLAS 3B R/B 3.6 21:44:29 45° NW 21:44:33 45° NW 21:51:41 10° NNE
Cosmos 2278 Rocket 4.3 21:44:06 10° NW 21:46:22 21° WNW 21:46:22 21° WNW
CENTAUR R/B 4.3 21:54:24 10° NNW 22:01:27 33° NNE 22:01:37 33° NE
